Time,TemperatureF,DewpointF,PressureIn,WindDirection,WindDirectionDegrees,WindSpeedMPH,WindSpeedGustMPH,Humidity,HourlyPrecipIn,Conditions,Clouds,dailyrainin,SoftwareType,DateUTC
2013-04-09 00:05:00,38.7,37.9,29.24,WSW,247,5.8,-999.0,97,-99.99,,,0.00,Acu-Link.com,2013-04-09 06:05:00,
2013-04-09 00:20:00,37.8,37.3,29.25,SW,225,3.7,-999.0,98,-99.99,,,0.00,Acu-Link.com,2013-04-09 06:20:00,
2013-04-09 00:51:00,34.5,34.0,29.24,West,270,0.0,-999.0,98,-99.99,,,0.00,Acu-Link.com,2013-04-09 06:51:00,
2013-04-09 01:07:00,32.9,32.4,29.24,NE,45,7.8,-999.0,98,-99.99,,,0.00,Acu-Link.com,2013-04-09 07:07:00,
2013-04-09 01:22:00,33.6,33.1,29.24,NNW,337,3.7,-999.0,98,-99.99,,,0.00,Acu-Link.com,2013-04-09 07:22:00,
2013-04-09 01:37:00,35.1,34.6,29.21,NNE,22,3.7,-999.0,98,-99.99,,,0.00,Acu-Link.com,2013-04-09 07:37:00,
2013-04-09 01:52:00,35.4,34.9,29.22,NNE,22,2.7,-999.0,98,-99.99,,,0.00,Acu-Link.com,2013-04-09 07:52:00,
2013-04-09 02:08:00,35.1,34.3,29.21,NE,45,3.7,-999.0,97,-99.99,,,0.00,Acu-Link.com,2013-04-09 08:08:00,
2013-04-09 02:23:00,34.5,34.0,29.21,WSW,247,3.2,-999.0,98,-99.99,,,0.00,Acu-Link.com,2013-04-09 08:23:00,
2013-04-09 02:38:00,34.5,33.5,29.21,South,180,3.2,-999.0,96,-99.99,,,0.00,Acu-Link.com,2013-04-09 08:38:00,
2013-04-09 02:53:00,34.5,34.0,29.22,SW,225,2.7,-999.0,98,-99.99,,,0.00,Acu-Link.com,2013-04-09 08:53:00,
2013-04-09 03:08:00,36.7,31.1,29.19,SSE,157,8.9,-999.0,80,-99.99,,,0.00,Acu-Link.com,2013-04-09 09:08:00,
2013-04-09 03:23:00,37.9,31.3,29.21,South,180,6.3,-999.0,77,-99.99,,,0.00,Acu-Link.com,2013-04-09 09:23:00,
2013-04-09 04:24:00,33.6,33.1,29.19,NE,45,4.7,-999.0,98,-99.99,,,0.00,Acu-Link.com,2013-04-09 10:24:00,
2013-04-09 04:39:00,33.1,32.6,29.19,East,90,6.8,-999.0,98,-99.99,,,0.00,Acu-Link.com,2013-04-09 10:39:00,
2013-04-09 04:54:00,32.9,32.4,29.18,NE,45,6.8,-999.0,98,-99.99,,,0.00,Acu-Link.com,2013-04-09 10:54:00,
2013-04-09 05:10:00,33.1,32.6,29.17,North,0,4.7,-999.0,98,-99.99,,,0.00,Acu-Link.com,2013-04-09 11:10:00,
2013-04-09 05:25:00,33.1,32.6,29.15,NNE,22,3.7,-999.0,98,-99.99,,,0.00,Acu-Link.com,2013-04-09 11:25:00,
2013-04-09 05:40:00,33.1,32.6,29.15,NNE,22,1.7,-999.0,98,-99.99,,,0.00,Acu-Link.com,2013-04-09 11:40:00,
2013-04-09 05:55:00,32.7,32.2,29.15,SSE,157,2.7,-999.0,98,-99.99,,,0.00,Acu-Link.com,2013-04-09 11:55:00,
2013-04-09 06:11:00,32.5,32.0,29.16,NE,45,1.1,-999.0,98,-99.99,,,0.00,Acu-Link.com,2013-04-09 12:11:00,
2013-04-09 06:41:00,32.5,32.0,29.15,West,270,0.0,-999.0,98,-99.99,,,0.00,Acu-Link.com,2013-04-09 12:41:00,
2013-04-09 06:57:00,32.7,32.2,29.15,SE,135,0.0,-999.0,98,-99.99,,,0.00,Acu-Link.com,2013-04-09 12:57:00,
2013-04-09 07:12:00,32.7,32.2,29.16,South,180,0.0,-999.0,98,-99.99,,,0.00,Acu-Link.com,2013-04-09 13:12:00,
2013-04-09 07:27:00,32.5,32.0,29.16,ENE,67,0.0,-999.0,98,-99.99,,,0.00,Acu-Link.com,2013-04-09 13:27:00,
2013-04-09 07:42:00,32.5,32.0,29.18,ENE,67,2.2,-999.0,98,-99.99,,,0.00,Acu-Link.com,2013-04-09 13:42:00,
2013-04-09 07:57:00,32.5,32.0,29.19,NE,45,2.2,-999.0,98,-99.99,,,0.00,Acu-Link.com,2013-04-09 13:57:00,
2013-04-09 08:13:00,31.5,31.0,29.21,NE,45,7.3,-999.0,98,-99.99,,,0.00,Acu-Link.com,2013-04-09 14:13:00,
2013-04-09 08:28:00,30.6,30.1,29.20,ESE,112,6.3,-999.0,98,-99.99,,,0.00,Acu-Link.com,2013-04-09 14:28:00,
2013-04-09 08:43:00,29.8,29.3,29.20,ESE,112,6.8,-999.0,98,-99.99,,,0.00,Acu-Link.com,2013-04-09 14:43:00,
2013-04-09 08:58:00,28.9,28.4,29.20,SE,135,5.3,-999.0,98,-99.99,,,0.00,Acu-Link.com,2013-04-09 14:58:00,
2013-04-09 09:13:00,30.2,29.7,29.21,ESE,112,2.7,-999.0,98,-99.99,,,0.00,Acu-Link.com,2013-04-09 15:13:00,
2013-04-09 09:44:00,30.4,29.9,29.21,East,90,5.8,-999.0,98,-99.99,,,0.00,Acu-Link.com,2013-04-09 15:44:00,
2013-04-09 09:59:00,33.4,31.6,29.21,NE,45,3.2,-999.0,93,-99.99,,,0.00,Acu-Link.com,2013-04-09 15:59:00,
2013-04-09 10:14:00,34.9,31.7,29.21,ENE,67,4.7,-999.0,88,-99.99,,,0.00,Acu-Link.com,2013-04-09 16:14:00,
2013-04-09 10:30:00,34.7,28.9,29.20,ESE,112,8.9,-999.0,79,-99.99,,,0.00,Acu-Link.com,2013-04-09 16:30:00,
2013-04-09 10:45:00,35.6,28.8,29.20,ESE,112,10.9,-999.0,76,-99.99,,,0.00,Acu-Link.com,2013-04-09 16:45:00,
2013-04-09 11:00:00,36.3,29.8,29.20,ESE,112,13.0,-999.0,77,-99.99,,,0.00,Acu-Link.com,2013-04-09 17:00:00,
2013-04-09 11:15:00,36.7,29.9,29.20,ESE,112,13.5,-999.0,76,-99.99,,,0.00,Acu-Link.com,2013-04-09 17:15:00,
2013-04-09 11:31:00,34.2,28.4,29.21,SE,135,15.0,-999.0,79,-99.99,,,0.00,Acu-Link.com,2013-04-09 17:31:00,
2013-04-09 11:46:00,33.4,29.4,29.21,ESE,112,17.1,-999.0,85,-99.99,,,0.00,Acu-Link.com,2013-04-09 17:46:00,
2013-04-09 12:01:00,34.2,29.3,29.22,SE,135,15.0,-999.0,82,-99.99,,,0.00,Acu-Link.com,2013-04-09 18:01:00,
2013-04-09 12:16:00,35.2,28.4,29.22,ESE,112,18.1,-999.0,76,-99.99,,,0.00,Acu-Link.com,2013-04-09 18:16:00,
2013-04-09 12:32:00,34.9,26.8,29.22,SE,135,12.5,-999.0,72,-99.99,,,0.00,Acu-Link.com,2013-04-09 18:32:00,
2013-04-09 12:47:00,34.5,25.7,29.22,SE,135,16.6,-999.0,70,-99.99,,,0.00,Acu-Link.com,2013-04-09 18:47:00,
2013-04-09 13:02:00,39.2,28.1,29.23,SE,135,11.9,-999.0,64,-99.99,,,0.00,Acu-Link.com,2013-04-09 19:02:00,
2013-04-09 13:17:00,40.5,27.3,29.21,ESE,112,9.4,-999.0,59,-99.99,,,0.00,Acu-Link.com,2013-04-09 19:17:00,
2013-04-09 13:32:00,39.0,26.7,29.22,ESE,112,11.9,-999.0,61,-99.99,,,0.00,Acu-Link.com,2013-04-09 19:32:00,
2013-04-09 13:47:00,40.3,27.5,29.22,SE,135,10.9,-999.0,60,-99.99,,,0.00,Acu-Link.com,2013-04-09 19:47:00,
2013-04-09 14:03:00,39.2,25.7,29.21,ESE,112,14.0,-999.0,58,-99.99,,,0.00,Acu-Link.com,2013-04-09 20:03:00,
2013-04-09 14:18:00,39.9,26.8,29.22,SSE,157,8.9,-999.0,59,-99.99,,,0.00,Acu-Link.com,2013-04-09 20:18:00,
2013-04-09 14:33:00,40.1,26.5,29.23,ESE,112,9.4,-999.0,58,-99.99,,,0.00,Acu-Link.com,2013-04-09 20:33:00,
2013-04-09 15:19:00,37.8,27.5,29.25,ESE,112,13.0,-999.0,66,-99.99,,,0.00,Acu-Link.com,2013-04-09 21:19:00,
2013-04-09 15:34:00,37.2,25.8,29.25,ESE,112,16.6,-999.0,63,-99.99,,,0.00,Acu-Link.com,2013-04-09 21:34:00,
2013-04-09 15:49:00,39.0,27.5,29.25,ESE,112,12.5,-999.0,63,-99.99,,,0.01,Acu-Link.com,2013-04-09 21:49:00,
2013-04-09 16:04:00,40.1,28.1,29.26,SSE,157,8.9,-999.0,62,-99.99,,,0.02,Acu-Link.com,2013-04-09 22:04:00,
2013-04-09 16:19:00,39.6,28.1,29.27,SSE,157,12.5,-999.0,63,-99.99,,,0.02,Acu-Link.com,2013-04-09 22:19:00,
2013-04-09 16:34:00,38.7,26.8,29.28,East,90,10.4,-999.0,62,-99.99,,,0.02,Acu-Link.com,2013-04-09 22:34:00,
2013-04-09 16:50:00,35.4,31.1,29.28,South,180,8.3,-999.0,84,-99.99,,,0.03,Acu-Link.com,2013-04-09 22:50:00,
2013-04-09 17:05:00,32.9,32.4,29.31,WSW,247,6.8,-999.0,98,-99.99,,,0.03,Acu-Link.com,2013-04-09 23:05:00,
2013-04-09 17:20:00,31.3,30.5,29.32,South,180,6.3,-999.0,97,-99.99,,,0.03,Acu-Link.com,2013-04-09 23:20:00,
2013-04-09 17:35:00,30.2,29.2,29.33,WSW,247,5.8,-999.0,96,-99.99,,,0.03,Acu-Link.com,2013-04-09 23:35:00,
2013-04-09 17:50:00,28.9,28.4,29.35,SW,225,6.8,-999.0,98,-99.99,,,0.03,Acu-Link.com,2013-04-09 23:50:00,
2013-04-09 18:05:00,28.9,28.4,29.37,SW,225,3.7,-999.0,98,-99.99,,,0.03,Acu-Link.com,2013-04-10 00:05:00,
2013-04-09 18:20:00,27.9,26.9,29.38,WSW,247,9.4,-999.0,96,-99.99,,,0.03,Acu-Link.com,2013-04-10 00:20:00,
2013-04-09 18:36:00,27.1,26.6,29.39,WSW,247,6.3,-999.0,98,-99.99,,,0.03,Acu-Link.com,2013-04-10 00:36:00,
2013-04-09 19:21:00,23.5,23.0,29.42,South,180,10.9,-999.0,98,-99.99,,,0.03,Acu-Link.com,2013-04-10 01:21:00,
2013-04-09 19:37:00,23.2,22.7,29.43,SSW,202,7.8,-999.0,98,-99.99,,,0.03,Acu-Link.com,2013-04-10 01:37:00,
2013-04-09 19:52:00,22.6,22.1,29.45,South,180,8.3,-999.0,98,-99.99,,,0.03,Acu-Link.com,2013-04-10 01:52:00,
2013-04-09 20:07:00,22.1,21.6,29.46,SW,225,7.8,-999.0,98,-99.99,,,0.03,Acu-Link.com,2013-04-10 02:07:00,
2013-04-09 20:22:00,21.7,21.2,29.46,SSW,202,9.9,-999.0,98,-99.99,,,0.03,Acu-Link.com,2013-04-10 02:22:00,
2013-04-09 20:38:00,21.4,20.9,29.47,SSW,202,11.4,-999.0,98,-99.99,,,0.03,Acu-Link.com,2013-04-10 02:38:00,
2013-04-09 20:53:00,21.6,21.1,29.49,South,180,6.8,-999.0,98,-99.99,,,0.03,Acu-Link.com,2013-04-10 02:53:00,
2013-04-09 21:08:00,21.9,21.4,29.50,SW,225,6.8,-999.0,98,-99.99,,,0.03,Acu-Link.com,2013-04-10 03:08:00,
2013-04-09 21:23:00,21.9,20.9,29.51,West,270,4.7,-999.0,96,-99.99,,,0.03,Acu-Link.com,2013-04-10 03:23:00,
2013-04-09 21:39:00,21.4,20.9,29.54,West,270,4.2,-999.0,98,-99.99,,,0.03,Acu-Link.com,2013-04-10 03:39:00,
2013-04-09 21:54:00,21.0,20.5,29.54,WSW,247,3.7,-999.0,98,-99.99,,,0.03,Acu-Link.com,2013-04-10 03:54:00,
2013-04-09 22:09:00,20.7,20.2,29.54,SSW,202,5.3,-999.0,98,-99.99,,,0.03,Acu-Link.com,2013-04-10 04:09:00,
2013-04-09 22:40:00,19.9,19.4,29.55,SW,225,3.2,-999.0,98,-99.99,,,0.03,Acu-Link.com,2013-04-10 04:40:00,
2013-04-09 22:55:00,19.6,19.1,29.55,SSW,202,7.3,-999.0,98,-99.99,,,0.03,Acu-Link.com,2013-04-10 04:55:00,
2013-04-09 23:10:00,19.2,18.7,29.56,South,180,7.8,-999.0,98,-99.99,,,0.03,Acu-Link.com,2013-04-10 05:10:00,
2013-04-09 23:25:00,18.9,18.4,29.57,SSW,202,8.9,-999.0,98,-99.99,,,0.03,Acu-Link.com,2013-04-10 05:25:00,
2013-04-09 23:40:00,18.7,18.2,29.56,SSW,202,6.8,-999.0,98,-99.99,,,0.03,Acu-Link.com,2013-04-10 05:40:00,
2013-04-09 23:55:00,18.1,17.6,29.57,SW,225,5.3,-999.0,98,-99.99,,,0.03,Acu-Link.com,2013-04-10 05:55:00,